COSMOS 2491 DEB, 45129

Orbit data source: Space-Track

COSMOS 2491 DEB, 45129 is space debris in LEO originally from a launch on Wed, 25 Dec 2013 UTC launched from the Plesetsk Missile And Space Complex (PKMTR). Debris objects in space refer to the collection of defunct objects orbiting the Earth. Examples of debris include non-operational satellites, rocket bodies, and fragments generated from explosions, collisions, or faulty payload assembly.

Loading next visibility...
Identifier
45129, 2013-076AB
Orbit
LEO
Country
Flag of CISCIS
Related business
Manufacturer
TsNIIKhM
Mission
Spacecraft
Bus & Motor
Unknown
Mass
Unknown
Launch date (UTC)
2013-12-25 (13 years ago)
Launch vehicle
Unknown
Launch site
Plesetsk Missile And Space Complex (PKMTR)
Object type
Payload
Rocket body
Debris
Shape & HBR
Unknown shape, 0.1 m
Radar Cross Section
Small (<0.1 m²)

Expand to show TLE details & history
Last TLE update: 3 weeks ago

TLE from 3 weeks ago
0 COSMOS 2491 DEB
1 45129U 13076AB  26187.04033036  .00005404  00000-0  25023-1 0  9997
2 45129  82.4310  99.1175 0211874  64.0728 298.2035 12.69469090161477
Epoch: 2026-07-06T00:58Z
TLE epoch observation values (Epoch: 2026-07-06T00:58:04.543Z)
Latitude
0.00004°
Longitude
160.56755°
Altitude
1,311.848 km
Speed
7.236 km/s
True Right ascension
06h 36m 28s
True Declination
0° 00' 00"
Sunlit
Object was in daylight at epoch
Visualization orbit readout
Latitude
Unknown
Longitude
Unknown
Altitude
Unknown
Speed
Unknown
Apparent Right ascension
Unknown
Apparent Declination
Unknown
Sunlit
N/A
Visualization observer readout
Local Sidereal Time
19:26:28
Azimuth
Unknown
Elevation
Unknown
Doppler factor
Unknown
Orbital elements
Apogee altitude
1,545.823 km
Perigee altitude
1,217.013 km
Semi-major axis
7,759.555 km
Eccentricity
0.02119
Inclination
82.431°
RAAN
99.1175°
Arg. of periapsis
64.0728°
True anomaly
296.03727°
Mean anomaly
298.2035°
Eccentric anomaly
297.12305°
Mean motion
3.17532 °/min
Orbital period
113.37 mins
BSTAR
0.025023
Loading maneuver chart data...
Computing Atmospheric mass density...
Loading historical data...
Loading historical data...
Loading historical data...
Loading historical data...
Loading historical data...
Loading historical data...
Loading historical data...

Documentation

Showing up to 5 results
|